This demonstration page uses our WeatherBlox Daily Observations layout. Learn more.

Left ArrowRight Arrow

39.08367, -84.50855

Hourly Observations for May 11, 2019

Temp ( °F °C ) Dew Point ( °F °C ) Humidity (%) Winds ( mph kmh ) Pressure ( in mb ) Visibility ( mi km ) Precip ( " mm )
12:53 am 00:53 Cloudy 52 11.1 44 6.7 75 75 NNE 5 7 30.16 1021 10 16.0934 0 0
1:53 am 01:53 Mostly Cloudy 50 10 44 6.7 80 80 NNE 6 9 30.14 1021 10 16.0934 0 0
2:53 am 02:53 Mostly Cloudy 49 9.4 45 7.2 86 86 N 3 6 30.11 1020 10 16.0934 0 0
3:53 am 03:53 Clear 46 7.8 44 6.7 93 93 Calm 30.1 1019 10 16.0934 0 0
4:53 am 04:53 Clear 46 7.8 44 6.7 93 93 Calm 30.11 1020 9 14.48406 0 0
5:35 am 05:35 Clear with Mist and Fog 45 7.2 44 6.7 97 97 VRB 5 7 30.12 1020 1.75 2.816345 0 0
5:48 am 05:48 Clear with Mist and Fog 45 7 43 6 93 93 VRB 5 7 30.11 1020 3 4.82802 0 0
5:53 am 05:53 Clear with Mist and Fog 45 7.2 43 6.1 93 93 VRB 3 6 30.1 1019 4 6.43736 0 0
6:02 am 06:02 Clear with Mist and Fog 44 6.7 43 6.1 96 96 VRB 5 7 30.1 1019 1.75 2.816345 0 0
6:11 am 06:11 Clear with Mist and Fog 44 6.7 42 5.6 93 93 VRB 5 7 30.1 1019 4 6.43736 0 0
6:53 am 06:53 Sunny with Mist and Fog 45 7.2 44 6.7 97 97 Calm 30.1 1019 4 6.43736 0 0
7:53 am 07:53 Sunny 49 9.4 46 7.8 90 90 NE 6 9 30.09 1019 10 16.0934 0 0
8:53 am 08:53 Sunny 54 12.2 46 7.8 75 75 ENE 9 15 30.08 1019 10 16.0934 0 0
9:53 am 09:53 Mostly Sunny 56 13.3 45 7.2 67 67 ENE 10 17 30.06 1018 10 16.0934 0 0
10:08 am 10:08 Mostly Cloudy 56 13.3 45 7.2 67 67 ENE 12 19 30.06 1018 10 16.0934 0 0
10:53 am 10:53 Cloudy 58 14.4 47 8.3 67 67 ENE 9 15 30.05 1018 10 16.0934 0 0
11:53 am 11:53 Mostly Cloudy 62 16.7 49 9.4 62 62 NE 9 15 30.03 1017 10 16.0934 0 0
12:07 pm 12:07 Partly Cloudy 62 16.7 50 10 65 65 E 6 9 30.02 1017 10 16.0934 0 0
12:53 pm 12:53 Mostly Cloudy 63 17.2 49 9.4 60 60 ENE 9 15 29.99 1016 10 16.0934 0 0
1:53 pm 13:53 Partly Cloudy 66 18.9 52 11.1 61 61 NNE 10 17 29.95 1014 10 16.0934 0 0
2:53 pm 14:53 Mostly Sunny 68 20 53 11.7 59 59 E 7 11 29.91 1013 10 16.0934 0 0
3:53 pm 15:53 Cloudy 68 20 52 11.1 57 57 NNE 8 13 29.9 1013 10 16.0934 0 0
4:53 pm 16:53 Cloudy 67 19.4 52 11.1 59 59 NE 5 7 29.88 1012 10 16.0934 0 0
5:53 pm 17:53 Cloudy 66 18.9 53 11.7 63 63 E 6 9 29.85 1011 10 16.0934 0 0
6:53 pm 18:53 Mostly Cloudy 65 18.3 53 11.7 66 66 ENE 7 11 29.82 1010 10 16.0934 0 0
7:53 pm 19:53 Mostly Cloudy 65 18.3 53 11.7 66 66 ENE 7 11 29.8 1009 10 16.0934 0 0
8:53 pm 20:53 Cloudy with Light Rain 63 17.2 55 12.8 76 76 E 6 9 29.78 1009 10 16.0934 0 0.0254
9:53 pm 21:53 Cloudy with Light Rain 61 16.1 57 13.9 87 87 E 6 9 29.79 1009 7 11.26538 0.02 0.508
10:24 pm 22:24 Cloudy with Rain 60 15.6 57 13.9 90 90 VRB 6 9 29.8 1009 2.5 4.02335 0.07 1.778
10:53 pm 22:53 Cloudy with Heavy Rain 59 15 58 14.4 96 96 N 9 15 29.8 1009 1.75 2.816345 0.19 4.826
11:05 pm 23:05 Cloudy with Light Rain 59 15 58 14.4 96 96 N 7 11 29.81 1009 4 6.43736 0.02 0.508
11:14 pm 23:14 Cloudy with Rain 57 13.9 55 12.8 93 93 NNE 15 24 29.82 1010 2.5 4.02335 0.04 1.016
11:21 pm 23:21 Cloudy with Heavy Rain 55 12.8 53 11.7 93 93 ENE 8 13 29.81 1010 2.5 4.02335 0.08 2.032
11:29 pm 23:29 Cloudy with Heavy Rain 55 12.8 53 11.7 93 93 NE 8 13 29.81 1010 2.5 4.02335 0.13 3.302
11:39 pm 23:39 Cloudy with Rain 54 12.2 52 11.1 93 93 NNE 10 17 29.81 1010 4 6.43736 0.15 3.81
11:53 pm 23:53 Cloudy with Light Rain 53 11.7 50 10 89 89 NE 9 15 29.8 1009 6 9.65604 0.17 4.318

Powered by AerisWeather